Location: Marse
(42.1502°N, 110.9866°W)
Time: 17:30:49
(UTC+00:00)

QB50P2 - Pass Details

Date: 04 July 2022
Orbit: 590 x 605 km, 97.9° (Epoch: 18 August)

Event Time Altitude Azimuth Distance (km) Brightness Sun altitude
Rises 10:16:46 0° 351° (N) 2,863 ? -14.3°
Reaches altitude 10° 10:20:21 10° 318° (NW) 1,957 ? -13.8°
Maximum altitude 10:21:47 12° 299° (WNW) 1,853 ? -13.7°
Drops below altitude 10° 10:23:13 10° 279° (W) 1,954 ? -13.5°
Enters shadow 10:23:50 - 271° (W) 2,056 ? -13.4°
